Location: Jetmore
(38.0845°N, 99.8935°W)
Time: 21:05:16
(UTC+00:00)

Cosmos 2058 Rocket - Pass Details

Date: 29 October 2020
Orbit: 610 x 640 km, 82.5° (Epoch: 01 December)

Event Time Altitude Azimuth Distance (km) Brightness Sun altitude
Rises 12:13:52 0° 343° (NNW) 2,941 6.3 -10.2°
Reaches altitude 10° 12:16:14 10° 336° (NNW) 2,024 5.4 -9.8°
Maximum altitude 12:20:22 37° 269° (W) 975 3.6 -9.0°
Drops below altitude 10° 12:24:27 10° 201° (SSW) 1,994 5.6 -8.2°
Sets 12:26:46 0° 193° (SSW) 2,890 6.5 -7.7°
